Weather in Tuszyn

Poland     51°36′18″N   19°32′32″E
temp.,
°C
wind,
m/s
gust,
m/s
humid.,
%
clouds,
%
prec.,
mm/h
press.,
hPa
HPBL,
m
20 april, tue
tue2023:00+8ene336231 0.0 101729
02:00+6ene227696 0.0 101635
05:00+5ene338220 0.0 101626
08:00+8ene247164 0.0 1016208
11:00+12ne345519 0.1 10151370
14:00+14ne234487 0.1 10131987
17:00+13nw445976 0.2 1013617
20:00+9nw227187 0.2 101311
21 april, wed
wed2123:00+8w118097 0.2 101310
02:00+7wsw3392100 1.1 101351
05:00+6wsw359517 0.6 101298
08:00+9wsw578345 0.6 1012310
11:00+13w69603 0.0 10111432
14:00+15wnw774985 0.1 10112137
17:00+13nw4760100 0.0 1010371
20:00+10w366456 0.0 1011118
22 april, thu
thu2223:00+8wsw346459 0.0 101160
02:00+7w5107610 0.1 1012331
05:00+5wnw4895100 0.0 1013493
08:00+5wnw6969100 0.7 1015911
11:00+6w7953100 0.0 10161360
14:00+9wnw8943100 0.0 10152436
17:00+7wnw885894 0.1 10161537
20:00+5w59676 0.1 1017749
23 april, fri
fri2323:00+2w49937 0.0 1018280
02:00+1w512800 0.0 1018370
05:000wsw5138629 0.0 1019342
08:00+4w610738 0.0 1019533
11:00+7w81057100 0.4 10191533
14:00+6w10127187 2.4 10181652
17:00+4wnw710857 0.8 1020885
20:00+2w487939 1.1 1022145
24 april, sat
sat2423:000wnw49810 0.0 1023152
02:00−2w410804 0.0 1023191
05:00−2w412805 0.0 1023236
08:00+3w596681 0.0 1023423
11:00+8w7953100 0.0 10211863
14:00+7wnw81073100 0.6 10201402
17:00+6wnw7116981 0.1 10201134
20:00+3wnw4108423 0.1 1020227